Theta_e
315 312 312 313 313 314 313 314 313 313 314 314 313 312 314 314 315 314 315 315 319 318 319 319 318 318 318 317 317 320 319 319 320 321 321 323 335 340 345 347 347 345 344 343
312 313 315 315 315 316 316 314 315 314 315 315 313 314 313 313 313 315 319 319 319 320 320 321 320 321 320 320 318 319 320 320 321 321 321 320 320 320 334 342 348 346 346 344
315 315 316 317 316 317 316 315 314 315 314 314 313 314 314 314 317 319 320 319 320 319 320 320 320 320 320 320 319 318 320 319 320 320 321 321 320 321 326 334 343 348 347 344
315 316 317 316 316 315 314 314 315 314 313 313 313 315 313 313 316 318 319 319 319 319 321 322 323 323 322 321 320 318 320 320 320 320 320 321 321 320 320 320 335 345 347 348
317 317 316 315 316 315 315 314 313 313 313 313 313 312 312 315 317 318 318 319 319 319 320 321 322 323 323 322 321 320 319 320 320 320 321 321 321 320 320 319 319 329 345 347
316 318 316 316 315 315 314 312 311 312 311 312 315 316 315 317 318 319 320 319 318 319 319 320 321 321 322 323 323 322 320 319 320 320 321 321 321 320 320 320 322 335 339 345
317 317 316 316 314 312 311 310 310 313 311 314 314 316 314 318 318 318 319 319 318 319 318 320 320 321 321 321 323 325 325 325 321 321 322 322 320 321 320 319 324 331 335 339
317 318 317 316 314 314 313 312 310 317 316 317 316 316 317 317 317 318 318 318 316 315 315 315 317 319 319 320 320 323 325 325 327 322 321 322 321 321 321 318 322 333 331 338
315 318 316 316 314 313 313 310 313 311 313 315 315 316 317 317 318 318 317 316 314 313 313 312 314 315 315 317 319 320 322 325 326 325 323 323 322 322 323 322 326 332 334 340
317 316 316 316 314 314 312 312 316 312 314 318 315 314 315 317 315 316 315 312 312 312 312 312 312 312 314 315 317 319 322 322 327 330 326 324 324 326 326 328 331 332 335 338
315 311 316 315 314 313 312 312 315 317 315 319 317 313 312 313 312 314 312 312 312 311 311 311 311 311 311 312 314 317 320 322 321 325 328 328 330 328 329 330 331 331 335 338
316 312 313 315 314 313 312 313 314 308 316 313 315 315 312 312 313 312 312 311 311 311 311 310 309 309 310 311 312 314 318 320 321 325 326 329 329 331 330 329 330 329 332 334
313 309 308 315 311 311 314 314 313 313 311 312 319 317 313 313 313 311 310 311 310 309 309 308 307 308 308 310 312 314 316 319 320 320 326 323 321 324 328 331 327 326 332 332
317 310 312 316 315 313 315 315 315 313 317 317 319 318 316 314 312 310 311 310 309 309 307 307 307 307 308 310 313 313 314 317 320 320 320 327 324 323 320 327 328 325 330 330
313 313 313 314 315 316 316 316 316 316 316 319 318 316 315 312 309 310 310 310 309 307 306 305 305 306 307 309 310 313 313 314 317 319 319 321 325 327 329 329 326 325 329 335
310 312 315 316 316 317 317 317 318 318 317 315 315 315 312 311 310 309 309 308 306 306 306 305 306 306 307 308 308 310 312 313 314 319 319 318 319 327 328 326 329 327 325 338
310 312 313 316 316 318 319 317 316 316 316 315 313 314 309 309 308 308 307 305 305 305 305 305 305 306 306 306 307 308 310 311 312 314 320 319 318 323 327 329 328 328 326 333
311 312 315 319 319 321 314 315 315 315 315 314 313 310 309 308 307 306 305 305 304 304 304 303 304 304 305 307 308 308 309 310 312 313 319 319 318 320 326 327 328 329 329 331
311 315 318 318 314 315 314 316 309 312 314 310 309 309 308 306 305 305 305 305 304 302 301 302 304 306 307 307 310 308 308 309 311 312 318 319 317 319 325 325 326 327 329 329
309 312 312 311 312 315 312 315 315 312 315 309 308 307 306 305 304 305 304 302 301 300 301 302 306 306 308 310 310 308 306 308 310 312 318 319 318 321 324 324 322 323 328 328
308 308 310 310 312 311 313 313 314 314 314 309 308 306 304 303 303 303 301 300 300 301 303 305 306 308 311 310 311 308 306 307 309 312 318 319 317 325 325 324 323 326 328 327
308 305 312 310 312 310 311 312 314 311 309 308 306 304 303 302 302 301 300 300 300 302 304 306 308 311 311 308 309 308 306 307 309 312 318 318 317 322 325 324 324 326 327 325
307 308 310 311 309 309 311 313 311 309 307 305 304 302 301 301 300 299 299 300 300 303 304 308 312 311 308 309 309 308 307 308 310 311 318 319 318 322 324 324 325 323 323 323
306 308 309 309 309 311 312 310 308 306 304 303 301 301 300 299 299 299 299 299 300 304 304 309 311 310 307 308 308 308 307 310 310 311 319 318 320 322 323 323 322 321 320 318
308 307 308 311 310 311 311 308 306 304 303 302 301 300 300 299 299 298 299 299 301 302 306 308 310 309 307 308 308 308 308 311 311 317 318 319 320 322 321 318 317 317 316 318
307 307 311 312 310 310 307 306 304 303 302 302 300 300 300 299 299 298 298 300 301 303 306 308 310 309 307 306 307 307 310 311 312 318 319 320 319 320 318 315 313 314 316 316
Wind_Speed
8 6 5 7 8 11 7 7 8 7 4 5 3 11 14 11 23 26 30 28 29 36 34 30 31 34 38 37 34 41 36 34 33 35 31 30 31 33 37 38 41 37 35 32
7 4 5 10 9 8 11 8 15 11 3 2 6 19 10 7 9 14 17 21 21 28 28 26 26 25 32 34 40 38 40 34 33 37 36 33 30 33 33 39 36 45 43 40
3 10 13 11 10 12 9 9 10 8 6 2 5 13 12 12 2 10 17 21 18 22 23 24 20 26 33 31 36 34 42 38 36 33 34 35 32 32 30 37 44 42 38 45
5 8 8 10 4 7 3 10 6 12 9 4 5 17 7 8 6 5 15 22 22 30 31 28 26 18 20 16 26 35 38 40 39 37 39 40 36 35 33 37 36 47 41 43
10 4 5 4 2 3 4 11 7 8 3 0 3 6 5 6 6 8 12 20 23 27 31 34 25 25 24 21 18 30 36 39 42 37 39 38 38 33 29 33 37 39 47 40
3 4 3 3 3 2 7 8 6 3 2 3 1 2 5 3 7 8 17 22 18 24 28 30 27 21 24 23 18 15 31 41 41 37 37 38 37 31 30 35 35 37 36 47
3 1 2 8 6 5 10 7 5 6 4 4 2 8 8 5 5 4 7 17 22 24 25 28 29 25 23 24 18 19 13 31 37 36 34 36 36 32 33 34 32 32 35 40
3 5 3 6 3 4 5 4 4 5 3 14 5 5 4 6 11 5 6 14 18 21 24 28 28 27 28 28 25 15 19 17 36 34 32 35 32 32 32 31 29 28 29 35
4 3 7 3 2 3 5 2 4 0 3 3 3 6 6 8 7 6 15 17 20 24 28 29 29 29 30 27 24 21 20 27 17 37 38 34 34 32 27 24 24 26 24 27
3 7 5 0 6 2 2 3 2 3 3 4 4 5 8 6 6 7 7 10 17 23 27 31 33 34 31 28 24 19 21 23 19 22 38 40 33 21 19 21 22 21 19 23
3 3 5 4 3 8 5 3 3 3 3 3 4 5 4 14 5 7 4 9 17 25 29 34 38 39 42 37 27 23 18 21 14 15 26 20 18 18 18 18 15 16 18 19
2 3 4 7 17 10 6 7 4 3 5 5 8 13 12 3 4 4 6 17 22 28 35 41 46 47 40 38 30 24 18 15 16 18 19 20 16 18 18 17 14 15 15 14
3 2 4 10 6 5 1 4 5 4 2 6 6 7 7 13 3 5 12 21 23 26 35 38 40 42 42 33 28 23 16 15 14 17 7 12 19 27 18 20 15 14 13 16
5 5 8 12 14 4 13 17 15 6 6 12 16 18 23 8 6 11 23 21 20 30 36 38 35 32 34 28 28 26 19 11 9 13 13 6 20 30 30 19 17 14 12 16
4 7 7 11 14 12 16 20 24 17 17 14 20 18 17 8 6 13 17 22 36 39 36 29 28 28 27 30 32 28 21 13 11 15 11 9 11 19 23 22 20 15 11 16
2 6 4 9 13 14 20 21 22 21 13 6 7 16 7 5 11 19 26 29 37 36 39 33 28 27 27 26 33 28 27 19 11 13 14 12 13 9 21 23 22 15 14 20
5 4 2 11 6 11 10 14 7 5 4 4 8 14 6 10 14 26 31 36 40 33 30 33 33 31 31 30 29 32 31 23 19 12 13 18 16 10 13 21 23 18 16 21
3 3 3 7 5 5 5 3 3 8 8 11 11 7 13 19 27 33 37 37 34 32 37 39 40 36 32 29 30 30 32 27 22 14 8 14 13 9 15 21 21 16 17 21
6 3 2 4 3 12 7 2 2 5 18 3 3 12 23 29 36 29 22 22 35 40 44 41 38 32 30 28 27 30 30 33 25 18 7 13 12 8 14 19 17 11 26 30
11 2 3 2 3 5 4 5 14 1 10 2 7 11 19 28 16 19 34 38 43 44 41 40 34 34 31 30 26 30 32 32 30 21 8 13 10 11 17 25 27 25 28 28
4 6 4 3 5 7 3 17 8 4 5 16 19 25 28 17 20 43 46 48 45 45 43 37 36 33 26 26 27 30 32 30 36 22 9 16 13 12 21 29 23 30 32 33
4 2 3 4 4 7 24 21 3 7 27 22 26 28 32 37 40 38 41 41 44 45 40 37 38 28 24 31 25 28 30 28 34 23 11 20 18 14 20 23 28 32 35 34
4 2 6 4 6 20 27 19 14 15 19 27 29 35 35 35 37 37 41 40 42 38 37 35 27 22 25 14 20 24 27 22 34 25 18 21 19 18 20 23 36 38 37 37
5 9 4 9 5 8 25 20 20 24 26 30 30 35 34 34 37 38 38 40 39 35 38 32 24 18 14 10 17 23 22 25 29 22 26 23 22 25 27 29 37 39 38 39
11 9 6 8 15 23 11 22 23 30 30 31 35 33 36 37 39 37 37 39 34 36 33 28 20 11 9 11 16 24 25 25 29 23 29 26 23 25 32 31 34 37 35 34
5 5 4 5 26 12 19 20 28 31 29 37 35 38 36 35 36 35 35 32 32 34 27 23 12 8 7 14 17 25 20 27 28 32 31 31 29 32 33 33 36 33 31 32
Wind_Direction
340 39 311 258 236 250 259 276 272 272 217 331 268 273 301 322 303 295 293 303 311 313 313 305 294 277 272 266 259 247 241 237 235 226 226 230 232 238 236 237 234 243 237 226
12 292 261 302 311 318 326 310 299 295 246 287 308 289 303 310 278 292 318 327 331 333 324 311 287 291 274 270 258 250 237 234 227 231 232 233 249 253 241 241 233 234 236 233
187 254 287 305 300 309 294 330 308 276 310 183 300 294 315 303 306 330 358 353 351 352 357 348 303 304 289 266 258 248 237 234 228 232 237 231 239 246 245 238 239 233 234 233
228 254 306 306 326 356 294 329 316 320 340 300 89 292 322 284 304 297 340 349 352 6 19 12 20 4 353 328 276 245 238 235 235 235 236 232 233 243 252 250 245 238 236 232
253 320 291 65 326 358 261 313 285 279 283 8 224 267 321 344 322 314 320 340 342 10 21 13 10 17 16 344 296 263 246 241 237 235 233 235 234 240 259 261 248 243 237 235
255 279 58 128 279 16 302 342 326 346 56 37 243 92 270 298 281 315 329 334 353 15 15 10 7 1 12 14 351 299 259 248 236 228 227 237 235 239 259 262 248 242 247 238
339 173 92 39 355 29 21 28 328 349 358 232 1 315 264 283 325 302 321 322 355 26 20 17 18 17 10 356 6 20 341 255 229 224 224 229 235 245 260 258 247 242 246 250
354 330 49 345 102 293 314 139 167 287 276 292 276 240 250 264 292 316 339 355 40 34 26 12 9 359 2 1 336 347 358 306 243 222 228 228 239 250 256 252 252 254 253 246
349 266 327 306 98 114 296 3 246 59 258 312 246 289 302 271 309 343 329 18 15 8 4 3 354 348 349 350 344 321 326 338 266 238 227 233 237 244 251 249 258 256 251 244
242 292 250 259 359 343 68 197 201 11 304 273 270 258 256 266 275 327 341 5 356 356 348 345 344 339 327 332 330 332 319 302 325 264 245 232 234 246 255 256 261 255 243 236
113 136 272 23 290 291 324 332 47 149 201 273 292 258 264 270 276 265 271 3 352 342 339 334 332 327 323 307 317 322 314 301 296 300 247 222 230 248 256 259 258 255 244 233
271 193 281 255 275 262 201 207 153 137 279 245 267 281 277 187 213 136 338 324 326 331 329 326 317 312 311 300 303 307 309 299 297 277 243 213 217 246 240 251 249 240 236 227
221 277 335 311 343 6 117 250 231 215 219 223 272 274 270 319 324 316 304 315 327 324 315 307 303 300 299 293 290 291 296 278 280 290 253 236 231 241 244 242 240 225 225 219
225 198 189 255 261 261 289 284 277 227 263 279 265 277 279 264 285 303 300 311 311 308 305 303 300 291 288 282 277 278 291 307 273 282 291 249 203 213 223 226 230 222 202 205
155 243 222 243 262 264 268 279 284 274 266 266 281 272 282 287 219 263 301 318 318 313 309 309 306 299 289 286 277 267 275 279 296 255 266 249 201 228 217 213 230 223 212 206
211 257 244 269 270 269 277 275 275 276 275 245 266 279 301 324 330 314 315 311 304 304 306 309 306 301 299 290 276 269 259 269 284 269 254 276 282 262 216 207 214 213 216 183
208 214 195 271 268 285 275 251 248 261 261 242 260 281 11 323 313 304 309 309 302 299 297 301 300 294 288 288 281 270 257 260 265 292 238 266 280 270 210 205 207 205 200 180
212 144 184 284 316 235 244 199 238 248 253 261 281 335 311 297 298 301 301 292 289 296 298 297 297 295 289 285 273 268 255 248 247 257 244 246 267 270 208 212 200 195 177 169
165 142 254 281 240 284 279 76 258 264 296 144 319 311 308 311 310 301 303 294 298 296 296 297 300 302 300 288 270 260 251 237 241 239 243 232 256 258 208 199 183 207 178 173
8 159 168 249 249 282 213 286 307 156 285 145 315 308 311 318 307 303 311 307 304 303 300 301 308 301 296 288 272 253 242 232 230 221 219 215 234 232 189 175 172 207 197 184
304 304 269 248 251 273 105 347 337 338 301 312 316 307 304 299 285 296 305 308 308 308 311 313 305 295 285 287 271 244 233 229 218 206 210 206 218 204 189 177 195 188 183 176
293 298 319 312 260 285 356 350 326 276 297 299 298 304 304 299 299 302 304 304 307 313 316 319 306 301 286 278 255 235 222 218 209 199 196 205 211 193 196 191 185 189 179 173
300 167 286 242 251 291 311 300 299 302 298 308 307 308 306 301 302 306 306 307 310 314 320 325 319 299 302 258 231 219 205 200 193 194 193 199 192 182 194 189 177 179 172 168
266 262 250 310 269 278 312 319 314 320 315 311 309 309 309 305 309 307 308 308 314 317 319 325 304 287 291 234 207 204 191 184 186 187 183 194 177 175 179 180 180 176 175 168
275 303 266 261 279 311 285 318 317 323 322 319 319 316 317 316 310 309 307 311 316 318 322 320 311 266 276 210 200 186 176 178 179 178 182 184 179 174 170 174 178 176 175 175
202 229 286 291 300 293 297 312 323 327 324 326 322 323 324 318 311 315 313 316 320 320 324 327 328 246 244 182 181 169 170 172 174 176 176 169 172 170 173 173 164 169 175 180